Back to catalog

THORAD DELTA 1 DEB

AliveSSO
NORAD 8394·DEBRIS·🇺🇸 United States

Launched Nov 15, 1974 from Vandenberg Space Force Base

Loading…

Next Passes (next 24 hours)

TLE

FreshSource: Space-Track

Epoch: Sep 14, 2026, 00:12 UTC

1 08394U 74089BW  26257.00883116 -.00000008  00000-0  31474-3 0  9992
2 08394 102.0748 270.2831 0174312 145.6550 242.9305 12.20481886950307

Track THORAD DELTA 1 DEB in real time with AllMySat

Download on the App Store